Weather History for EGPD - October, 2012

Change the Weather History Date:

Friday, October 5, 2012

  Actual Average Record
Temperature  
Mean Temperature 46 °F -  
Max Temperature 55 °F 53 °F 69 °F (1997)
Min Temperature 38 °F 41 °F 33 °F (2008)
Degree Days  
Heating Degree Days 18    
Moisture  
Dew Point 41 °F    
Average Humidity 83    
Maximum Humidity 100    
Minimum Humidity 47    
Precipitation  
Precipitation 0.04 in 0.10 in - ()
Sea Level Pressure  
Sea Level Pressure 29.53 in    
Wind  
Wind Speed 5 mph ()    
Max Wind Speed 13 mph    
Max Gust Speed -    
Visibility 7.1 miles    
Events Rain    
Averages and records for this station are not official NWS values.
T = Trace of Precipitation, MM = Missing Value Source: Averaged Metar Reports

Daily Weather History Graph

Daily Weather History Graph

Search for Another Location

Airport or City:

Trip Planner

Search our weather history database for the weather conditions in past years. The results will help you decide how hot, cold, wet, or windy it might be!

Date:

Astronomy

Oct. 05, 2012 Rise Set
Actual Time 7:21 AM BST 6:31 PM BST
Civil Twilight 6:43 AM BST 7:09 PM BST
Nautical Twilight 5:58 AM BST 7:54 PM BST
Astronomical Twilight 5:12 AM BST 8:39 PM BST
Moon 8:43 PM BST (10/5) 1:17 PM BST (10/5)
Length of Visible Light 12h 26m
Length of Day
11h 09m
Waning Gibbous, 76% of the Moon is Illuminated
Oct 5
Waning Gibbous
Oct 8
Last Quarter
Oct 15
New
Oct 22
First Quarter
Oct 29
Full

Hourly Weather History & Observations

Time (BST) Temp. Windchill Dew Point Humidity Pressure Visibility Wind Dir Wind Speed Gust Speed Precip Events Conditions
12:20 AM 39.2 °F 35.9 °F 37.4 °F 93% 29.53 in 6.2 mi SSW 4.6 mph - N/A   Unknown
12:50 AM 45 °F - 41 °F 82%  in 25 mi SSW 8.1 mph - -   Mostly Cloudy
12:50 AM 41.0 °F 39.0 °F 39.2 °F 93% 29.53 in - SW 3.5 mph - N/A   Clear
1:20 AM 39.2 °F 35.9 °F 37.4 °F 93% 29.50 in 6.2 mi South 4.6 mph - N/A   Unknown
1:50 AM 41.0 °F - 39.2 °F 93% 29.50 in - Calm Calm - N/A   Clear
2:20 AM 37.4 °F - 37.4 °F 100% 29.50 in 6.2 mi WSW 2.3 mph - N/A   Unknown
2:50 AM 37.4 °F - 37.4 °F 100% 29.50 in - Calm Calm - N/A   Clear
3:20 AM 37.4 °F - 37.4 °F 100% 29.47 in 6.2 mi Calm Calm - N/A   Unknown
3:50 AM 40 °F - 39 °F 94% 29.48 in 19 mi NNW 1.2 mph - -   Mostly Cloudy
3:50 AM 39.2 °F - 37.4 °F 93% 29.47 in 6.2 mi NW 2.3 mph - N/A   Unknown
4:20 AM 39.2 °F 37.0 °F 37.4 °F 93% 29.47 in 6.2 mi North 3.5 mph - N/A   Partly Cloudy
4:50 AM 39.2 °F - 39.2 °F 100% 29.44 in 6.2 mi NNW 2.3 mph - N/A   Scattered Clouds
5:20 AM 41.0 °F - 39.2 °F 93% 29.44 in 6.2 mi WNW 2.3 mph - N/A   Scattered Clouds
5:50 AM 41.0 °F - 41.0 °F 100% 29.44 in 6.2 mi Calm Calm - N/A Rain Light Rain Showers
6:20 AM 42.8 °F 41.1 °F 42.8 °F 100% 29.44 in 5.6 mi West 3.5 mph - N/A Rain Light Rain
6:50 AM 46 °F - 44 °F 88% 29.44 in 13 mi WNW 3.5 mph - - Rain Light Rain
6:50 AM 42.8 °F 40.1 °F 42.8 °F 100% 29.44 in 6.2 mi WNW 4.6 mph - N/A Rain Light Rain
7:20 AM 44.6 °F 43.1 °F 42.8 °F 93% 29.44 in 6.2 mi Variable 3.5 mph - N/A Rain Light Rain
7:50 AM 42.8 °F - 41.0 °F 93% 29.44 in 6.2 mi NE 2.3 mph - N/A Rain Light Rain
8:20 AM 42.8 °F - 41.0 °F 93% 29.44 in 6.2 mi NW 2.3 mph - N/A   Light Drizzle
8:50 AM 44.6 °F - 42.8 °F 93% 29.44 in 6.2 mi Calm Calm - N/A   Mostly Cloudy
9:20 AM 44.6 °F 42.2 °F 42.8 °F 93% 29.44 in 6.2 mi North 4.6 mph - N/A   Mostly Cloudy
9:50 AM 47 °F - 43 °F 82% 29.46 in 11 mi NNW 3.5 mph - - Rain Rain
9:50 AM 46.4 °F 45.2 °F 42.8 °F 87% 29.44 in 6.2 mi Variable 3.5 mph - N/A   Scattered Clouds
10:20 AM 46.4 °F 42.4 °F 42.8 °F 87% 29.47 in 6.2 mi NW 8.1 mph - N/A   Scattered Clouds
10:50 AM 46.4 °F 41.9 °F 42.8 °F 87% 29.47 in 6.2 mi NW 9.2 mph - N/A   Scattered Clouds
11:20 AM 48.2 °F - 42.8 °F 82% 29.47 in 6.2 mi NW 8.1 mph - N/A   Scattered Clouds
11:50 AM 50.0 °F - 44.6 °F 82% 29.47 in 6.2 mi NW 11.5 mph - N/A   Scattered Clouds
12:20 PM 50.0 °F - 44.6 °F 82% 29.50 in 6.2 mi NNW 10.4 mph - N/A   Partly Cloudy
12:50 PM 51 °F - 43 °F 66% 29.52 in 22 mi NW 12.7 mph - -   Scattered Clouds
12:50 PM 51.8 °F - 44.6 °F 76% 29.50 in 6.2 mi NW 11.5 mph - N/A   Scattered Clouds
1:20 PM 51.8 °F - 44.6 °F 76% 29.53 in 6.2 mi NW 11.5 mph - N/A   Scattered Clouds
1:50 PM 53.6 °F - 44.6 °F 72% 29.53 in 6.2 mi NW 9.2 mph - N/A   Scattered Clouds
2:20 PM 53.6 °F - 42.8 °F 67% 29.53 in 6.2 mi NNW 11.5 mph - N/A   Scattered Clouds
2:50 PM 53.6 °F - 42.8 °F 67% 29.56 in 6.2 mi NW 9.2 mph - N/A   Scattered Clouds
3:20 PM 53.6 °F - 42.8 °F 67% 29.56 in 6.2 mi NNW 11.5 mph - N/A   Partly Cloudy
3:50 PM 54 °F - 40 °F 47% 29.57 in 19 mi NNW 8.1 mph - -  
3:50 PM 53.6 °F - 41.0 °F 62% 29.56 in - NNW 9.2 mph - N/A   Clear
4:20 PM 53.6 °F - 41.0 °F 62% 29.56 in 6.2 mi NNW 8.1 mph - N/A   Partly Cloudy
4:50 PM 53.6 °F - 41.0 °F 62% 29.56 in 6.2 mi North 6.9 mph - N/A   Partly Cloudy
5:20 PM 53.6 °F - 41.0 °F 62% 29.56 in 6.2 mi NW 6.9 mph - N/A   Partly Cloudy
5:50 PM 51.8 °F - 41.0 °F 67% 29.59 in 6.2 mi WNW 4.6 mph - N/A   Partly Cloudy
6:20 PM 48.2 °F - 41.0 °F 76% 29.59 in 6.2 mi WSW 5.8 mph - N/A   Partly Cloudy
6:50 PM 48 °F - 41 °F 68% 29.62 in 25 mi West 4.6 mph - -   Partly Cloudy
6:50 PM 46.4 °F 43.5 °F 41.0 °F 81% 29.59 in 6.2 mi West 5.8 mph - N/A   Partly Cloudy
7:20 PM 46.4 °F 44.3 °F 41.0 °F 81% 29.62 in 6.2 mi WSW 4.6 mph - N/A   Partly Cloudy
7:50 PM 46.4 °F - 41.0 °F 81% 29.62 in - Variable 2.3 mph - N/A   Clear
8:20 PM 46.4 °F 45.2 °F 41.0 °F 81% 29.62 in - West 3.5 mph - N/A   Clear
8:50 PM 46.4 °F 43.5 °F 42.8 °F 87% 29.62 in - WSW 5.8 mph - N/A   Clear
9:20 PM 46.4 °F 42.9 °F 41.0 °F 81% 29.62 in - West 6.9 mph - N/A   Clear
9:50 PM 47 °F - 39 °F 64% 29.65 in 25 mi WSW 9.2 mph - -   Scattered Clouds
9:50 PM 46.4 °F 42.4 °F 39.2 °F 76% 29.62 in - WSW 8.1 mph - N/A   Clear
10:20 PM 44.6 °F 40.7 °F 39.2 °F 81% 29.62 in - West 6.9 mph - N/A   Clear
10:50 PM 42.8 °F 39.3 °F 39.2 °F 87% 29.65 in - West 5.8 mph - N/A   Clear
11:20 PM 41.0 °F 36.4 °F 37.4 °F 87% 29.65 in 6.2 mi WSW 6.9 mph - N/A   Unknown
11:50 PM 41.0 °F 38.0 °F 37.4 °F 87% 29.65 in - WSW 4.6 mph - N/A   Clear